This is the latest recevied weather packets stored in our database for station/object AI5KP-13. If no packets are shown the sender has not sent any weather packets the latest 10 day(s).
| Time | Temp. | Humidity | Pressure | Rain* | Wind** | Luminosity | Snow |
|---|---|---|---|---|---|---|---|
| 1777789149 | 5° C | 94% | 1019.9 hPa | 0 mm | - | 0 W/m² | - |
| 1777788846 | 5.56° C | 94% | 1020 hPa | 0 mm | - | 0 W/m² | - |
| 1777788541 | 5.56° C | 94% | 1019.9 hPa | 0 mm | - | 0 W/m² | - |
| 1777788235 | 5.56° C | 93% | 1020.1 hPa | 0 mm | - | 0 W/m² | - |
| 1777787932 | 5.56° C | 92% | 1020 hPa | 0 mm | - | 0 W/m² | - |
| 1777787627 | 6.11° C | 91% | 1020 hPa | 0 mm | - | 0 W/m² | - |
| 1777787323 | 6.11° C | 90% | 1019.9 hPa | 0 mm | - | 0 W/m² | - |
| 1777787019 | 6.11° C | 90% | 1020 hPa | 0 mm | - | 0 W/m² | - |
| 1777786717 | 6.11° C | 90% | 1019.8 hPa | 0 mm | - | 0 W/m² | - |
| 1777786415 | 6.11° C | 90% | 1020.1 hPa | 0 mm | - | 0 W/m² | - |
| 1777786111 | 6.67° C | 90% | 1020.1 hPa | 0 mm | - | 0 W/m² | - |
| 1777785808 | 6.11° C | 90% | 1020.1 hPa | 0 mm | - | 0 W/m² | - |
| 1777785504 | 6.67° C | 90% | 1019.9 hPa | 0 mm | - | 0 W/m² | - |
| 1777785201 | 6.67° C | 90% | 1019.9 hPa | 0 mm | - | 0 W/m² | - |
| 1777784898 | 6.67° C | 89% | 1020 hPa | 0 mm | - | 0 W/m² | - |
| 1777784594 | 7.22° C | 88% | 1019.8 hPa | 0 mm | - | 0 W/m² | - |
| 1777784292 | 7.22° C | 88% | 1020.2 hPa | 0 mm | - | 0 W/m² | - |
| 1777783989 | 7.22° C | 89% | 1020 hPa | 0 mm | - | 0 W/m² | - |
| 1777783685 | 7.22° C | 89% | 1019.8 hPa | 0 mm | - | 0 W/m² | - |
| 1777783382 | 7.22° C | 88% | 1019.7 hPa | 0 mm | - | 0 W/m² | - |
| 1777783080 | 7.22° C | 87% | 1020 hPa | 0 mm | - | 0 W/m² | - |
| 1777782777 | 7.22° C | 87% | 1019.8 hPa | 0 mm | - | 0 W/m² | - |
| 1777782472 | 7.22° C | 87% | 1019.7 hPa | 0 mm | - | 0 W/m² | - |
| 1777782169 | 7.78° C | 87% | 1020 hPa | 0 mm | - | 0 W/m² | - |
| 1777781865 | 7.78° C | 86% | 1019.9 hPa | 0 mm | - | 0 W/m² | - |
* Rain latest hour (hover to see other rain measurements)
** Current wind speed in m/s (hover to see current wind gust speed)